{"data":{"norad_id":56124,"epoch":"2026-05-25T03:52:21.501408Z","epoch_age_seconds":60545,"freshness":"FRESH","line1":"1 56124U 23046AJ  26145.16135997  .00000068  00000+0  11992-4 0  9991","line2":"2 56124  43.0033  75.2775 0000952 245.8846 114.1906 15.27574394173896","mean_motion":15.27574394,"eccentricity":9.52e-5,"inclination_deg":43.0033,"raan_deg":75.2775,"arg_perigee_deg":245.8846,"mean_anomaly_deg":114.1906,"bstar":1.1992e-5,"rev_number":17389,"period_min":94.267094660399,"perigee_km":482.41269595733,"apogee_km":483.71906898615,"semimajor_km":6861.2028824717,"source":"CELESTRAK","updated_at":"2026-05-25T13:38:17.959147Z"}}